Location: ??????
(41.3794°N, 22.5014°E)
Time: 08:27:36
(UTC+00:00)

Cosmos 44 - Pass Details

Date: 30 November 2020
Orbit: 574 x 788 km, 65.1° (Epoch: 17 January)

Event Time Altitude Azimuth Distance (km) Brightness Sun altitude
Rises 15:25:26 0° 330° (NNW) 3,207 6.8 -4.8°
Reaches altitude 10° 15:27:51 10° 335° (NNW) 2,303 6.0 -5.2°
Maximum altitude 15:33:06 57° 54° (NE) 915 3.6 -6.1°
Drops below altitude 10° 15:38:26 10° 133° (SE) 2,342 5.8 -7.1°
Sets 15:40:54 0° 137° (SE) 3,265 6.6 -7.5°
